Socorro, NM

12:32 AM MDT on September 29, 2016 (GMT -0600)
Socorro Municipal

Weather History for KONM - March, 2014

Change the Weather History Date:

Thursday, March 27, 2014

  Actual Average Record
Temperature  
Mean Temperature 60 °F -  
Max Temperature 71 °F 69 °F 78 °F (2012)
Min Temperature 48 °F 37 °F 32 °F (2016)
Degree Days  
Heating Degree Days 6    
Growing Degree Days 10 (Base 50)    
Moisture  
Dew Point 19 °F    
Average Humidity 23    
Maximum Humidity 41    
Minimum Humidity 12    
Precipitation  
Precipitation 0.00 in - - ()
Sea Level Pressure  
Sea Level Pressure 29.83 in    
Wind  
Wind Speed 14 mph (WNW)    
Max Wind Speed 29 mph    
Max Gust Speed 40 mph    
Visibility 10 miles    
Events      
Averages and records for this station are not official NWS values.
T = Trace of Precipitation, MM = Missing Value Source: NWS Daily Summary

Daily Weather History Graph

Daily Weather History Graph

Search for Another Location

Airport or City:

Trip Planner

Search our weather history database for the weather conditions in past years. The results will help you decide how hot, cold, wet, or windy it might be!

Date:

Astronomy

Mar. 27, 2014 Rise Set
Actual Time 7:01 AM MDT 7:24 PM MDT
Civil Twilight 6:36 AM MDT 7:49 PM MDT
Nautical Twilight 6:07 AM MDT 8:19 PM MDT
Astronomical Twilight 5:37 AM MDT 8:49 PM MDT
Moon 4:46 AM MDT (3/27) 4:23 PM MDT (3/27)
Length of Visible Light 13h 13m
Length of Day
12h 23m
Waning Crescent, 12% of the Moon is Illuminated
Mar 27
Waning Crescent
Mar 30
New
Apr 7
First Quarter
Apr 15
Full
Apr 22
Last Quarter

Hourly Weather History & Observations

Time (MDT) Temp. Dew Point Humidity Pressure Visibility Wind Dir Wind Speed Gust Speed Precip Events Conditions
12:15 AM 60.1 °F 16.5 °F 18% 29.73 in 10.0 mi West 13.8 mph 29.9 mph N/A   Clear
12:35 AM 59.5 °F 16.9 °F 19% 29.74 in 10.0 mi West 12.7 mph - N/A   Clear
12:55 AM 57.0 °F 18.0 °F 22% 29.74 in 10.0 mi West 6.9 mph - N/A   Clear
1:15 AM 57.4 °F 21.4 °F 25% 29.75 in 10.0 mi West 19.6 mph 24.2 mph N/A   Clear
1:35 AM 57.2 °F 21.7 °F 25% 29.76 in 10.0 mi West 24.2 mph 32.2 mph N/A   Clear
1:55 AM 57.2 °F 18.9 °F 22% 29.76 in 10.0 mi West 23.0 mph 32.2 mph N/A   Clear
2:15 AM 57.2 °F 21.0 °F 25% 29.76 in 10.0 mi West 19.6 mph 38.0 mph N/A   Clear
2:35 AM 56.7 °F 23.5 °F 28% 29.76 in 10.0 mi West 18.4 mph 29.9 mph N/A   Clear
2:55 AM 55.6 °F 25.7 °F 32% 29.76 in 10.0 mi WNW 23.0 mph 34.5 mph N/A   Clear
3:15 AM 55.4 °F 25.2 °F 31% 29.76 in 10.0 mi West 19.6 mph 40.3 mph N/A   Clear
3:35 AM 55.4 °F 22.5 °F 28% 29.76 in 10.0 mi West 28.8 mph 39.1 mph N/A   Clear
3:55 AM 55.0 °F 21.2 °F 27% 29.76 in 10.0 mi WNW 21.9 mph 38.0 mph N/A   Clear
4:15 AM 54.5 °F 23.0 °F 29% 29.76 in 10.0 mi NW 15.0 mph 32.2 mph N/A   Clear
4:35 AM 54.0 °F 23.2 °F 30% 29.78 in 10.0 mi NNE 15.0 mph 25.3 mph N/A   Clear
4:55 AM 50.9 °F 26.1 °F 38% 29.79 in 10.0 mi North 11.5 mph 19.6 mph N/A   Clear
5:15 AM 50.5 °F 26.2 °F 39% 29.80 in 10.0 mi ENE 10.4 mph 20.7 mph N/A   Clear
5:35 AM 50.0 °F 26.4 °F 40% 29.81 in 10.0 mi NE 11.5 mph 19.6 mph N/A   Clear
5:55 AM 49.1 °F 26.2 °F 41% 29.81 in 10.0 mi NE 10.4 mph - N/A   Clear
6:15 AM 49.1 °F 25.3 °F 40% 29.82 in 10.0 mi North 13.8 mph - N/A   Clear
6:35 AM 48.7 °F 24.8 °F 39% 29.83 in 10.0 mi North 12.7 mph - N/A   Clear
6:55 AM 49.1 °F 24.4 °F 38% 29.83 in 10.0 mi NNW 15.0 mph 24.2 mph N/A   Clear
7:15 AM 49.3 °F 24.1 °F 37% 29.84 in 10.0 mi NW 19.6 mph 24.2 mph N/A   Clear
7:35 AM 49.5 °F 23.9 °F 37% 29.83 in 10.0 mi NW 25.3 mph 29.9 mph N/A   Clear
7:55 AM 50.4 °F 23.9 °F 36% 29.85 in 10.0 mi NW 18.4 mph 29.9 mph N/A   Clear
8:15 AM 51.8 °F 23.9 °F 34% 29.87 in 10.0 mi West 8.1 mph 16.1 mph N/A   Clear
8:35 AM 51.3 °F 23.9 °F 34% 29.88 in 10.0 mi SSE 4.6 mph 21.9 mph N/A   Clear
8:55 AM 52.9 °F 24.1 °F 33% 29.89 in 10.0 mi East 6.9 mph - N/A   Clear
9:15 AM 52.5 °F 24.1 °F 33% 29.90 in 10.0 mi East 6.9 mph - N/A   Clear
9:35 AM 55.0 °F 24.4 °F 31% 29.90 in 10.0 mi East 13.8 mph - N/A   Clear
9:55 AM 55.2 °F 24.4 °F 30% 29.90 in 10.0 mi NE 13.8 mph 19.6 mph N/A   Clear
10:15 AM 56.7 °F 24.8 °F 29% 29.90 in 10.0 mi East 11.5 mph 17.3 mph N/A   Clear
10:35 AM 57.9 °F 23.4 °F 26% 29.90 in 10.0 mi East 5.8 mph 16.1 mph N/A   Clear
10:55 AM 57.2 °F 22.5 °F 26% 29.90 in 10.0 mi SSE 4.6 mph - N/A   Clear
11:15 AM 59.2 °F 21.9 °F 24% 29.89 in 10.0 mi SSW 9.2 mph - N/A   Clear
11:35 AM 59.9 °F 20.7 °F 22% 29.89 in 10.0 mi South 8.1 mph - N/A   Clear
11:55 AM 60.8 °F 20.7 °F 21% 29.88 in 10.0 mi SE 12.7 mph - N/A   Clear
12:15 PM 61.7 °F 20.1 °F 20% 29.88 in 10.0 mi SSE 10.4 mph 20.7 mph N/A   Clear
12:35 PM 63.5 °F 19.6 °F 19% 29.87 in 10.0 mi SSE 9.2 mph 23.0 mph N/A   Clear
12:55 PM 64.8 °F 16.7 °F 16% 29.86 in 10.0 mi South 5.8 mph - N/A   Clear
1:15 PM 64.6 °F 15.6 °F 15% 29.86 in 10.0 mi SE 4.6 mph - N/A   Clear
1:35 PM 64.0 °F 14.9 °F 15% 29.85 in 10.0 mi NNE 3.5 mph - N/A   Scattered Clouds
1:55 PM 66.4 °F 13.6 °F 13% 29.83 in 10.0 mi NW 10.4 mph 17.3 mph N/A   Scattered Clouds
2:15 PM 67.8 °F 13.5 °F 12% 29.83 in 10.0 mi West 12.7 mph 25.3 mph N/A   Clear
2:35 PM 69.3 °F 14.5 °F 12% 29.82 in 10.0 mi West 11.5 mph 21.9 mph N/A   Clear
2:55 PM 70.3 °F 15.4 °F 12% 29.80 in 10.0 mi NW 12.7 mph 23.0 mph N/A   Clear
3:15 PM 70.2 °F 15.6 °F 12% 29.80 in 10.0 mi West 10.4 mph 20.7 mph N/A   Clear
3:35 PM 71.2 °F 16.0 °F 12% 29.79 in 10.0 mi NW 12.7 mph 21.9 mph N/A   Clear
3:55 PM 70.9 °F 15.4 °F 12% 29.79 in 10.0 mi NW 8.1 mph 19.6 mph N/A   Clear
4:15 PM 71.1 °F 15.6 °F 12% 29.78 in 10.0 mi WNW 11.5 mph 25.3 mph N/A   Clear
4:35 PM 71.6 °F 15.3 °F 12% 29.78 in 10.0 mi WNW 11.5 mph 21.9 mph N/A   Scattered Clouds
4:55 PM 71.2 °F 15.1 °F 12% 29.77 in 10.0 mi West 16.1 mph 25.3 mph N/A   Scattered Clouds
5:15 PM 69.8 °F 14.9 °F 12% 29.78 in 10.0 mi West 10.4 mph - N/A   Scattered Clouds
5:35 PM 70.5 °F 15.4 °F 12% 29.78 in 10.0 mi West 17.3 mph 23.0 mph N/A   Scattered Clouds
6:15 PM 68.0 °F 15.3 °F 13% 29.77 in 10.0 mi West 16.1 mph - N/A   Clear
6:55 PM 66.2 °F 14.9 °F 14% 29.79 in 10.0 mi West 16.1 mph 20.7 mph N/A   Clear
7:15 PM 65.3 °F 14.9 °F 14% 29.79 in 10.0 mi West 12.7 mph 20.7 mph N/A   Clear
7:35 PM 64.6 °F 14.9 °F 15% 29.80 in 10.0 mi West 12.7 mph 19.6 mph N/A   Clear
7:55 PM 63.9 °F 14.0 °F 14% 29.81 in 10.0 mi West 15.0 mph 24.2 mph N/A   Clear
8:15 PM 63.0 °F 14.0 °F 15% 29.82 in 10.0 mi West 18.4 mph 24.2 mph N/A   Scattered Clouds
8:35 PM 62.6 °F 13.8 °F 15% 29.83 in 10.0 mi West 12.7 mph 21.9 mph N/A   Mostly Cloudy
8:55 PM 62.1 °F 14.0 °F 15% 29.84 in 10.0 mi West 18.4 mph 23.0 mph N/A   Overcast
9:15 PM 61.3 °F 16.3 °F 17% 29.85 in 10.0 mi West 17.3 mph 29.9 mph N/A   Mostly Cloudy
9:35 PM 60.6 °F 16.7 °F 18% 29.86 in 10.0 mi West 18.4 mph 31.1 mph N/A   Scattered Clouds
9:55 PM 59.9 °F 16.3 °F 18% 29.87 in 10.0 mi West 24.2 mph 32.2 mph N/A   Mostly Cloudy
10:15 PM 59.4 °F 16.7 °F 19% 29.88 in 10.0 mi West 21.9 mph 28.8 mph N/A   Mostly Cloudy
10:35 PM 59.0 °F 17.1 °F 20% 29.90 in 10.0 mi West 16.1 mph 25.3 mph N/A   Scattered Clouds
10:55 PM 58.5 °F 17.1 °F 20% 29.90 in 10.0 mi West 18.4 mph 29.9 mph N/A   Scattered Clouds
11:15 PM 58.1 °F 16.7 °F 20% 29.92 in 10.0 mi West 11.5 mph 25.3 mph N/A   Scattered Clouds
11:35 PM 57.4 °F 16.7 °F 20% 29.94 in 10.0 mi WNW 9.2 mph - N/A   Clear
11:55 PM 56.8 °F 16.5 °F 21% 29.94 in 10.0 mi Calm Calm - N/A   Clear